W1JCN Weather Reports


Display with metric or nautical units.
time (UTC)temp
F
wind
direction
speed
MPH
gust
MPH
rain 1hr
in
rain 24hr
in
rain mn
in
humidity
%
barometer
mb
20260504202942 66 228 1.0 8.0 0.00 0.00 0.00 42 1004.0
20260504202042 66 228 2.0 8.0 0.00 0.00 0.00 42 1004.0
20260504201142 66 253 2.0 6.0 0.00 0.00 0.00 41 1004.0
20260504200242 65 280 2.0 7.0 0.00 0.00 0.00 40 1004.1
20260504195342 64 267 1.0 7.0 0.00 0.00 0.00 40 1004.2
20260504194442 64 259 2.0 7.0 0.00 0.00 0.00 43 1004.3
20260504192642 63 229 1.0 11.0 0.00 0.00 0.00 44 1004.5
20260504191742 63 245 1.0 11.0 0.00 0.00 0.00 45 1004.4
20260504184142 62 227 2.0 7.0 0.00 0.00 0.00 43 1004.6
20260504183242 62 240 1.0 7.0 0.00 0.00 0.00 43 1004.6
20260504182342 62 232 1.0 6.0 0.00 0.00 0.00 47 1004.4
20260504181442 62 231 1.0 6.0 0.00 0.00 0.00 44 1004.5
20260504175642 62 263 1.0 9.0 0.00 0.00 0.00 45 1004.6
20260504174742 63 258 2.0 7.0 0.00 0.00 0.00 43 1004.8
20260504173842 63 256 2.0 13.0 0.00 0.00 0.00 43 1004.6
20260504172942 64 241 2.0 9.0 0.00 0.00 0.00 45 1004.6
20260504172042 63 214 2.0 8.0 0.00 0.00 0.00 45 1004.5
20260504170242 63 244 2.0 9.0 0.00 0.00 0.00 46 1004.6
20260504141142 56 217 1.0 6.0 0.00 0.00 0.00 55 1005.5
20260504140242 55 230 2.0 7.0 0.00 0.00 0.00 55 1005.5
20260504110241 43 209 0.0 3.0 0.00 0.00 0.00 79 1006.4
20260504080241 41 273 0.0 1.0 0.00 0.00 0.00 80 1006.2
20260504050241 37 0 0.0 0.0 0.00 0.00 0.00 83 1006.6
20260504044440 36 1 0.0 2.0 0.00 0.00 0.00 80 1006.5
20260504042640 34 319 0.0 1.0 0.00 0.00 0.00 85 1006.5
20260504041740 33 0 0.0 0.0 0.00 0.00 0.00 87 1006.5
20260504040840 32 0 0.0 0.0 0.00 0.00 0.00 87 1006.4
20260504033242 31 319 0.0 1.0 0.00 0.00 0.00 86 1006.3
20260504031440 31 0 0.0 0.0 0.00 0.00 0.00 85 1006.3
20260504030540 31 319 0.0 1.0 0.00 0.00 0.00 84 1006.4
20260504025640 31 0 0.0 0.0 0.00 0.00 0.00 84 1006.3
20260504024740 32 0 0.0 0.0 0.00 0.00 0.00 84 1006.3
20260504023840 32 319 0.0 1.0 0.00 0.00 0.00 83 1006.3
20260504022940 32 319 0.0 3.0 0.00 0.00 0.00 82 1006.4
20260504022040 32 319 0.0 1.0 0.00 0.00 0.00 82 1006.4
20260504020240 33 0 0.0 0.0 0.00 0.00 0.00 81 1006.4
20260504015340 34 0 0.0 0.0 0.00 0.00 0.00 80 1006.3
20260504014440 34 319 0.0 1.0 0.00 0.00 0.00 80 1006.2
20260504013540 35 0 0.0 0.0 0.00 0.00 0.00 78 1006.1
20260504012640 35 0 0.0 0.0 0.00 0.00 0.00 77 1006.0
20260504010840 36 0 0.0 0.0 0.00 0.00 0.00 75 1005.8
20260504005940 37 0 0.0 0.0 0.00 0.00 0.00 73 1005.7
20260504005040 38 0 0.0 0.0 0.00 0.00 0.00 72 1005.7
20260504003240 40 0 0.0 0.0 0.00 0.00 0.00 69 1005.5
20260504002340 41 0 0.0 0.0 0.00 0.00 0.00 66 1005.4
20260504001440 42 0 0.0 0.0 0.00 0.00 0.00 64 1005.3
20260504000540 43 0 0.0 0.0 0.00 0.00 0.00 62 1005.3
20260503235640 44 0 0.0 0.0 0.00 0.00 0.00 59 1005.2
20260503234740 44 0 0.0 0.0 0.00 0.00 0.00 54 1005.1
20260503233840 45 320 0.0 3.0 0.00 0.00 0.00 50 1005.0
20260503232940 45 315 0.0 4.0 0.00 0.00 0.00 48 1005.0
20260503232040 45 314 1.0 9.0 0.00 0.00 0.00 48 1004.9
20260503231140 46 312 1.0 8.0 0.00 0.00 0.00 49 1004.8
20260503230240 46 293 0.0 2.0 0.00 0.00 0.00 50 1004.8
20260503225340 46 269 1.0 6.0 0.00 0.00 0.00 49 1004.7
20260503224440 46 296 2.0 10.0 0.00 0.00 0.00 48 1004.7
20260503223540 46 268 3.0 7.0 0.00 0.00 0.00 50 1004.8
20260503221740 46 262 1.0 6.0 0.00 0.00 0.00 52 1004.8
20260503220840 46 293 2.0 12.0 0.00 0.00 0.00 50 1004.8
20260503215940 46 299 1.0 8.0 0.00 0.00 0.00 51 1004.7
20260503215040 46 320 1.0 12.0 0.00 0.00 0.00 51 1004.6
20260503214140 45 294 2.0 10.0 0.00 0.00 0.00 53 1004.6
20260503213240 45 289 1.0 6.0 0.00 0.00 0.00 53 1004.5
20260503212340 45 306 1.0 11.0 0.00 0.00 0.00 51 1004.5
20260503211440 45 290 3.0 8.0 0.00 0.00 0.00 51 1004.5
20260503205640 46 298 4.0 13.0 0.00 0.00 0.00 51 1004.4
20260503204739 46 277 3.0 13.0 0.00 0.00 0.00 50 1004.5
20260503203840 45 294 3.0 13.0 0.00 0.00 0.00 51 1004.3